Starlink 32486

operational
NORAD ID: 61854 Int'l Des: 2024-202 Owner: SPXS Country: US Constellation: starlink
LEOCIRCULAR

About Starlink 32486

Description loading...

Live Position

Loading 3D Globe...

Upcoming Passes

Altitude History

Altitude vs Time

uPlot chart will show altitude changes over time

Two-Line Element Set

1 61854U 24202K 25350.99809482 .00000415 00000-0 24591-4 0 9993
2 61854 43.0003 344.7618 0001385 272.3681 87.7012 15.27590384 62697
Epoch: Dec 16, 2025 • Age: 5 hours

Current Status

Altitude 482.9 km
Velocity 7.63 km/s
Sub-Earth Point 19.86°N, 25°W
Launch Date Nov 7, 2024
Age 1.1 years
Type internet

Technical Details

Classification Payload
Mass 730.00 kg
Dry Mass 700.00 kg
Total Mass 730.00 kg
Length 0.30 m
Diameter 4.10 m
Span 29.00 m
Shape Box + pan
Manufacturer SPXS
Bus Type Starlink V2M
Phase Status In Orbit
Owner/State SPXS/US

Large Constellations

Loading constellations...